Crane Lake, MN

2:14 AM CDT on August 17, 2017 (GMT -0500)
Crane Lake

Weather History for KCDD - December, 2013

Change the Weather History Date:

Tuesday, December 17, 2013

  Actual Average Record
Temperature  
Mean Temperature 2 °F -  
Max Temperature 17 °F 19 °F 39 °F (2001)
Min Temperature -16 °F 4 °F -18 °F (2008)
Degree Days  
Heating Degree Days 64    
Moisture  
Dew Point -1 °F    
Average Humidity 83    
Maximum Humidity 100    
Minimum Humidity 67    
Precipitation  
Precipitation 0.00 in - - ()
Sea Level Pressure  
Sea Level Pressure 29.85 in    
Wind  
Wind Speed 3 mph (NW)    
Max Wind Speed 13 mph    
Max Gust Speed 20 mph    
Visibility 9 miles    
Events Snow    
Averages and records for this station are not official NWS values.
T = Trace of Precipitation, MM = Missing Value Source: NWS Daily Summary

Daily Weather History Graph

Daily Weather History Graph

Search for Another Location

Airport or City:

Trip Planner

Search our weather history database for the weather conditions in past years. The results will help you decide how hot, cold, wet, or windy it might be!

Date:

Astronomy

Dec. 17, 2013 Rise Set
Actual Time 7:55 AM CST 4:16 PM CST
Civil Twilight 7:19 AM CST 4:53 PM CST
Nautical Twilight 6:39 AM CST 5:33 PM CST
Astronomical Twilight 6:01 AM CST 6:11 PM CST
Moon 5:01 PM CST 7:47 AM CST
Length of Visible Light 9h 34m
Length of Day
8h 20m
Full, 100% of the Moon is Illuminated
Dec 17
Full
Dec 25
Last Quarter
Jan 1
New
Jan 7
First Quarter
Jan 15
Full

Hourly Weather History & Observations

Time (CST) Temp. Windchill Dew Point Humidity Pressure Visibility Wind Dir Wind Speed Gust Speed Precip Events Conditions
12:07 AM -7.6 °F - -9.4 °F 92% 29.69 in 10.0 mi Calm Calm - N/A   Clear
12:26 AM -7.6 °F - -9.4 °F 92% 29.69 in 10.0 mi Calm Calm - N/A   Clear
12:46 AM -7.6 °F - -9.4 °F 92% 29.69 in 10.0 mi Calm Calm - N/A   Scattered Clouds
1:07 AM -5.8 °F - -9.4 °F 84% 29.69 in 10.0 mi Calm Calm - N/A   Mostly Cloudy
1:27 AM -5.8 °F - -7.6 °F 92% 29.69 in 10.0 mi Calm Calm - N/A   Mostly Cloudy
1:47 AM -5.8 °F - -9.4 °F 84% 29.69 in 10.0 mi Calm Calm - N/A   Clear
2:07 AM -7.6 °F - -9.4 °F 92% 29.69 in 10.0 mi Calm Calm - N/A   Clear
2:27 AM -7.6 °F - -11.2 °F 84% 29.69 in 10.0 mi Calm Calm - N/A   Clear
2:46 AM -7.6 °F - -11.2 °F 84% 29.69 in 10.0 mi Calm Calm - N/A   Clear
3:07 AM -7.6 °F - -9.4 °F 92% 29.69 in 10.0 mi Calm Calm - N/A   Mostly Cloudy
3:27 AM -5.8 °F - -7.6 °F 92% 29.69 in 10.0 mi Calm Calm - N/A   Overcast
3:47 AM -5.8 °F - -7.6 °F 92% 29.68 in 10.0 mi Calm Calm - N/A   Overcast
4:07 AM -2.2 °F - -4.0 °F 92% 29.68 in 7.0 mi Calm Calm - N/A Snow Light Snow
4:26 AM 1.4 °F - -2.2 °F 85% 29.69 in 4.0 mi Calm Calm - N/A Snow Light Snow
4:46 AM 3.2 °F - 1.4 °F 92% 29.69 in 2.5 mi Calm Calm - N/A Snow Light Snow
5:07 AM 6.8 °F - 3.2 °F 85% 29.69 in 10.0 mi Calm Calm - N/A   Overcast
5:26 AM 6.8 °F - 6.8 °F 100% 29.70 in 10.0 mi Calm Calm - N/A Snow Light Snow
5:47 AM 12.2 °F 2.9 °F 10.4 °F 92% 29.70 in 7.0 mi West 5.8 mph - N/A Snow Light Snow
6:07 AM 17.6 °F 10.7 °F 15.8 °F 93% 29.71 in 10.0 mi WNW 4.6 mph - N/A Snow Light Snow
6:27 AM 17.6 °F 10.7 °F 15.8 °F 93% 29.72 in 10.0 mi NNW 4.6 mph - N/A   Overcast
6:46 AM 17.6 °F 7.3 °F 15.8 °F 93% 29.73 in 10.0 mi NW 8.1 mph - N/A   Overcast
7:06 AM 17.6 °F 12.3 °F 15.8 °F 93% 29.73 in 7.0 mi NW 3.5 mph - N/A Snow Light Snow
7:26 AM 17.6 °F - 14.0 °F 86% 29.74 in 10.0 mi Calm Calm - N/A Snow Light Snow
7:46 AM 17.6 °F 12.3 °F 15.8 °F 93% 29.75 in 3.0 mi West 3.5 mph - N/A Snow Light Snow
8:07 AM 17.6 °F 12.3 °F 15.8 °F 93% 29.76 in 10.0 mi WNW 3.5 mph - N/A   Overcast
8:26 AM 17.6 °F 4.3 °F 15.8 °F 93% 29.78 in 0.8 mi NNW 12.7 mph 19.6 mph N/A Snow Light Snow
8:46 AM 15.8 °F 3.4 °F 12.2 °F 86% 29.80 in 1.0 mi NNW 10.4 mph 16.1 mph N/A Snow Light Snow
9:06 AM 12.2 °F -1.0 °F 10.4 °F 92% 29.82 in 2.0 mi NNW 10.4 mph 18.4 mph N/A Snow Light Snow
9:27 AM 12.2 °F 0.7 °F 10.4 °F 92% 29.83 in 1.2 mi NNW 8.1 mph - N/A Snow Light Snow
9:46 AM 12.2 °F 2.9 °F 10.4 °F 92% 29.85 in 3.0 mi NNW 5.8 mph - N/A Snow Light Snow
10:06 AM 12.2 °F -1.0 °F 10.4 °F 92% 29.86 in 7.0 mi NNW 10.4 mph 17.3 mph N/A   Overcast
10:26 AM 12.2 °F -0.2 °F 8.6 °F 85% 29.87 in 10.0 mi NW 9.2 mph - N/A   Overcast
10:46 AM 12.2 °F -1.0 °F 8.6 °F 85% 29.88 in 7.0 mi NNW 10.4 mph 18.4 mph N/A   Overcast
11:06 AM 12.2 °F 1.7 °F 6.8 °F 79% 29.88 in 4.0 mi NNW 6.9 mph - N/A Snow Light Snow
11:26 AM 10.4 °F -4.1 °F 6.8 °F 85% 29.89 in 7.0 mi NNW 11.5 mph 18.4 mph N/A   Overcast
11:47 AM 10.4 °F -2.4 °F 5.0 °F 79% 29.89 in 10.0 mi NW 9.2 mph - N/A   Overcast
12:06 PM 10.4 °F -4.1 °F 3.2 °F 73% 29.89 in 10.0 mi NNW 11.5 mph 18.4 mph N/A   Overcast
12:26 PM 10.4 °F 0.8 °F 3.2 °F 73% 29.89 in 10.0 mi NNW 5.8 mph - N/A   Overcast
12:47 PM 10.4 °F -0.4 °F 3.2 °F 73% 29.88 in 7.0 mi NNW 6.9 mph - N/A   Overcast
1:07 PM 10.4 °F -1.5 °F 3.2 °F 73% 29.88 in 3.0 mi NW 8.1 mph - N/A Snow Light Snow
1:26 PM 12.2 °F 1.7 °F 6.8 °F 79% 29.89 in 4.0 mi NNW 6.9 mph - N/A Snow Light Snow
1:46 PM 10.4 °F -0.4 °F 3.2 °F 73% 29.89 in 10.0 mi NNW 6.9 mph - N/A   Overcast
2:07 PM 10.4 °F -0.4 °F 1.4 °F 67% 29.90 in 10.0 mi WNW 6.9 mph - N/A   Overcast
2:26 PM 10.4 °F -0.4 °F 1.4 °F 67% 29.92 in 10.0 mi NW 6.9 mph - N/A   Overcast
2:46 PM 8.6 °F -3.7 °F 1.4 °F 73% 29.92 in 10.0 mi NW 8.1 mph 17.3 mph N/A   Overcast
3:06 PM 8.6 °F -1.3 °F -0.4 °F 67% 29.93 in 10.0 mi NW 5.8 mph - N/A   Mostly Cloudy
3:26 PM 6.8 °F -3.5 °F -0.4 °F 72% 29.94 in 10.0 mi WNW 5.8 mph - N/A   Scattered Clouds
3:46 PM 5.0 °F - -2.2 °F 72% 29.95 in 10.0 mi Calm Calm - N/A   Clear
4:06 PM 5.0 °F -2.1 °F -2.2 °F 72% 29.95 in 10.0 mi NW 3.5 mph - N/A   Mostly Cloudy
4:26 PM 5.0 °F - -0.4 °F 78% 29.96 in 10.0 mi Calm Calm - N/A   Overcast
4:47 PM 5.0 °F - -0.4 °F 78% 29.97 in 10.0 mi Calm Calm - N/A   Mostly Cloudy
5:06 PM 5.0 °F - -2.2 °F 72% 29.97 in 10.0 mi Calm Calm - N/A   Overcast
5:26 PM 3.2 °F -6.2 °F -2.2 °F 78% 29.98 in 10.0 mi WNW 4.6 mph - N/A   Scattered Clouds
5:46 PM 3.2 °F -6.2 °F -4.0 °F 72% 29.99 in 10.0 mi WNW 4.6 mph - N/A   Clear
6:07 PM 1.4 °F - -4.0 °F 78% 29.99 in 10.0 mi Calm Calm - N/A   Clear
6:26 PM 1.4 °F - -5.8 °F 72% 29.99 in 10.0 mi Calm Calm - N/A   Clear
6:46 PM -0.4 °F - -5.8 °F 78% 29.99 in 10.0 mi Calm Calm - N/A   Clear
7:07 PM -0.4 °F - -7.6 °F 72% 29.98 in 10.0 mi Calm Calm - N/A   Clear
7:26 PM -4.0 °F - -9.4 °F 78% 29.98 in 10.0 mi Calm Calm - N/A   Clear
7:46 PM -2.2 °F -10.4 °F -7.6 °F 78% 29.98 in 10.0 mi WSW 3.5 mph - N/A   Clear
8:06 PM -4.0 °F -12.4 °F -9.4 °F 78% 29.99 in 10.0 mi WSW 3.5 mph - N/A   Clear
8:26 PM -2.2 °F -10.4 °F -7.6 °F 78% 29.98 in 10.0 mi WSW 3.5 mph - N/A   Clear
8:46 PM -4.0 °F - -9.4 °F 78% 29.99 in 10.0 mi Calm Calm - N/A   Clear
9:07 PM -4.0 °F -12.4 °F -7.6 °F 85% 30.00 in 10.0 mi WSW 3.5 mph - N/A   Clear
9:26 PM -5.8 °F - -9.4 °F 84% 29.99 in 10.0 mi Calm Calm - N/A   Clear
9:47 PM -5.8 °F - -9.4 °F 84% 29.99 in 10.0 mi Calm Calm - N/A   Clear
10:06 PM -7.6 °F - -13.0 °F 77% 30.00 in 10.0 mi Calm Calm - N/A   Clear
10:27 PM -9.4 °F - -16.6 °F 71% 30.00 in 10.0 mi Calm Calm - N/A   Clear
10:47 PM -11.2 °F - -16.6 °F 77% 30.00 in 10.0 mi Calm Calm - N/A   Clear
11:07 PM -14.8 °F - -18.4 °F 84% 29.99 in 10.0 mi Calm Calm - N/A   Clear
11:26 PM -14.8 °F - -20.2 °F 77% 29.99 in 10.0 mi Calm Calm - N/A   Clear
11:46 PM -16.6 °F - -20.2 °F 84% 29.99 in 10.0 mi Calm Calm - N/A   Clear